CZ-6A DEB, 56246

Orbit data source: Space-Track

CZ-6A DEB, 56246 is space debris in SSO originally from a launch on Fri, 11 Nov 2022 UTC launched from the Taiyaun Space Center, China (TSC). Debris objects in space refer to the collection of defunct objects orbiting the Earth. Examples of debris include non-operational satellites, rocket bodies, and fragments generated from explosions, collisions, or faulty payload assembly.

Loading next visibility...
Identifier
56246, 2022-151ABN
Orbit
SSO
Country
Flag of CNCN / PRC
Related business
Manufacturer
SAST
Mission
Spacecraft
Bus & Motor
Unknown
Mass
Unknown
Launch date (UTC)
2022-11-11 (3 years ago)
Launch vehicle
Unknown
Launch site
Taiyaun Space Center, China (TSC)
Object type
Payload
Rocket body
Debris
Shape & HBR
Unknown shape, 0.2 m
Radar Cross Section
Small (<0.1 m²)

Expand to show TLE details & history
Last TLE update: 21 hours ago

TLE from 21 hours ago
0 CZ-6A DEB
1 56246U 22151ABN 25351.22132819  .00009549  00000-0  90314-3 0  9995
2 56246  98.7019  93.4936 0120372 346.7442  13.0617 14.88540337147494
Epoch: 2025-12-17T05:18Z
TLE epoch observation values (Epoch: 2025-12-17T05:18:42.755Z)
Latitude
-0.00003°
Longitude
-72.27884°
Altitude
523.686 km
Speed
7.646 km/s
True Right ascension
06h 13m 58s
True Declination
0° 00' 00"
Sunlit
Object was in full shadow at epoch
Visualization orbit readout
Latitude
Unknown
Longitude
Unknown
Altitude
Unknown
Speed
Unknown
Apparent Right ascension
Unknown
Apparent Declination
Unknown
Sunlit
N/A
Visualization observer readout
Local Sidereal Time
00:47:06
Azimuth
Unknown
Elevation
Unknown
Doppler factor
Unknown
Orbital elements
Apogee altitude
683.554 km
Perigee altitude
515.57 km
Semi-major axis
6,977.699 km
Eccentricity
0.01204
Inclination
98.7019°
RAAN
93.4936°
Arg. of periapsis
346.7442°
True anomaly
13.37807°
Mean anomaly
13.0617°
Eccentric anomaly
13.21942°
Mean motion
3.7237 °/min
Orbital period
96.68 mins
BSTAR
0.00090314
Loading maneuver chart data...
Computing Atmospheric mass density...
Loading historical data...
Loading historical data...
Loading historical data...
Loading historical data...
Loading historical data...
Loading historical data...
Loading historical data...

Documentation

Showing up to 5 results
|